User: anonymous   Login
Location: Caltech
(34.1382°N, 118.1253°W)
Time: 23:40:55
(UTC-07:00)
Language:

Saudisat 1A - Orbit

View from above orbital plane
View from above orbital plane
View from above satellite
View from above satellite

Ground track
Ground track

The orbit data is extracted from the following two-line orbital elements,

1 26546U 00057B   16125.17790763  .00000474  00000-0  64233-4 0  9997
2 26546  64.5537 175.1971 0048312 274.8268  84.7326 14.90198056845708
Epoch (UTC): 04 May 2016 04:16:11
Eccentricity: 0.0048312
inclination: 64.5537°
perigee height: 563 km
apogee height: 631 km
right ascension of ascending node: 175.1971°
argument of perigee: 274.8268°
revolutions per day: 14.90198056
mean anomaly at epoch: 84.7326°
orbit number at epoch: 84570

The dashed part of the orbit path shows where the satellite is in the earth's shadow,  

DLR